Regional Weather Roundup
Issued by NWS

Home | Current Version | Previous Version | Text Only | Print | Product List | Glossary Off
Versions: 1 2 3 4 5 6 7 8 9 10 11 12 13 14 15 16 17 18 19 20 21 22 23 24 25 26 27 28 29 30 31 32 33 34 35 36 37 38 39 40 41 42 43 44 45 46 47 48 49 50

000
ASUS43 KFSD 280510
RWRSD

WEATHER ROUNDUP FOR SOUTH DAKOTA
NATIONAL WEATHER SERVICE SIOUX FALLS SD
1200 AM CDT MON JUL 28 2014

NOTE: "FAIR" INDICATES FEW OR NO CLOUDS BELOW 12,000 FEET WITH NO
SIGNIFICANT WEATHER AND/OR OBSTRUCTIONS TO VISIBILITY.


SDZ001>005-009-010-012>017-280600-
NORTHWEST AND NORTH CENTRAL SOUTH DAKOTA

CITY           SKY/WX    TMP DP  RH WIND       PRES   REMARKS
BUFFALO          N/A     58  53  84 SE6       30.27R
FAITH            N/A     57  52  83 E6        30.32R
MOBRIDGE       CLEAR     56  52  86 NE7       30.27S
$$

SDZ012>016-024>037-041>051-057-063-072>074-280600-
SOUTHWEST AND SOUTH CENTRAL SOUTH DAKOTA

CITY           SKY/WX    TMP DP  RH WIND       PRES   REMARKS
RAPID CTY ARPT CLEAR     60  53  77 NE8       30.34R
PIERRE         CLEAR     58  53  84 NE7       30.27R
CUSTER         CLEAR     56  47  71 E6        30.43R
ELLSWORTH AFB  CLEAR     61  53  75 SE5       30.34R
PHILIP         CLEAR     59  51  75 E7        30.30R
PINE RIDGE     PTCLDY    58  52  80 NE6       30.31S
WINNER         FAIR      60  53  77 NE7       30.29R
$$

SDZ004>011-016>023-039-040-280600-
NORTHEAST SOUTH DAKOTA

CITY           SKY/WX    TMP DP  RH WIND       PRES   REMARKS
ABERDEEN       CLEAR     53  52  96 NW7       30.25S
WATERTOWN      CLEAR     56  51  84 N6        30.23R
SISSETON         N/A     56  55  97 NW6       30.21R
$$

SDZ017-020-022-023-036>040-048>070-280600-
SOUTHEAST SOUTH DAKOTA

CITY           SKY/WX    TMP DP  RH WIND       PRES   REMARKS
SIOUX FALLS    MOCLDY    63  58  83 N8        30.22R
HURON          CLEAR     54  52  93 NW3       30.25R
CHAMBERLAIN    CLEAR     58  54  84 CALM      30.28R
MITCHELL       CLEAR     59  55  87 W6        30.26R
YANKTON        CLOUDY    61  55  82 NW6       30.24R
$$

ABBREVIATIONS USED IN REMARKS
   TC - TEMPERATURE IN CELSIUS
  WCI - WIND CHILL INDEX
   HX - HEAT INDEX
  VSB - VISIBILITY




USA.gov is the U.S. government's official web portal to all federal, state and local government web resources and services.